Location: ???? ??????? ????
(31.2176°N, 31.6797°E)
Time: 18:51:58
(UTC+00:00)

SAR-Lupe-1 - Pass Details

Date: 29 October 2020
Orbit: 480 x 485 km, 98.2° (Epoch: 26 November)

Event Time Altitude Azimuth Distance (km) Brightness Sun altitude
Rises 15:51:27 0° 8° (N) 2,546 7.5 -10.1°
Reaches altitude 10° 15:53:32 10° 6° (N) 1,663 6.6 -10.6°
Maximum altitude 15:57:04 66° 284° (WNW) 530 4.5 -11.3°
Drops below altitude 10° 16:00:36 10° 202° (SSW) 1,655 7.2 -12.0°
Sets 16:02:39 0° 199° (SSW) 2,531 8.1 -12.5°
